Year,Month,Day,Hour,Minute,Value (Times are PST for temperature in C)
2021,06,26,00,00,22.60
2021,06,26,00,01,22.60
2021,06,26,00,02,22.60
2021,06,26,00,03,22.60
2021,06,26,00,04,22.60
2021,06,26,00,05,22.50
2021,06,26,00,06,22.50
2021,06,26,00,07,22.40
2021,06,26,00,08,22.40
2021,06,26,00,09,22.40
2021,06,26,00,10,22.40
2021,06,26,00,11,22.40
2021,06,26,00,12,22.40
2021,06,26,00,13,22.40
2021,06,26,00,14,22.40
2021,06,26,00,15,22.40
2021,06,26,00,16,22.40
2021,06,26,00,17,22.40
2021,06,26,00,18,22.40
2021,06,26,00,19,22.40
2021,06,26,00,20,22.40
2021,06,26,00,21,22.40
2021,06,26,00,22,22.40
2021,06,26,00,23,22.40
2021,06,26,00,24,22.40
2021,06,26,00,25,22.30
2021,06,26,00,26,22.30
2021,06,26,00,27,22.30
2021,06,26,00,28,22.30
2021,06,26,00,29,22.30
2021,06,26,00,30,22.30
2021,06,26,00,31,22.30
2021,06,26,00,32,22.30
2021,06,26,00,33,22.30
2021,06,26,00,34,22.30
2021,06,26,00,35,22.30
2021,06,26,00,36,22.30
2021,06,26,00,37,22.20
2021,06,26,00,38,22.20
2021,06,26,00,39,22.20
2021,06,26,00,40,22.20
2021,06,26,00,41,22.20
2021,06,26,00,42,22.20
2021,06,26,00,43,22.20
2021,06,26,00,44,22.10
2021,06,26,00,45,22.10
2021,06,26,00,46,22.10
2021,06,26,00,47,22.10
2021,06,26,00,48,22.10
2021,06,26,00,49,22.00
2021,06,26,00,50,22.00
2021,06,26,00,51,22.00
2021,06,26,00,52,22.00
2021,06,26,00,53,21.90
2021,06,26,00,54,21.90
2021,06,26,00,55,21.90
2021,06,26,00,56,21.90
2021,06,26,00,57,21.90
2021,06,26,00,58,21.90
2021,06,26,00,59,21.90
2021,06,26,01,00,21.90
2021,06,26,01,01,21.90
2021,06,26,01,02,21.90
2021,06,26,01,03,21.80
2021,06,26,01,04,21.80
2021,06,26,01,05,21.80
2021,06,26,01,06,21.80
2021,06,26,01,07,21.80
2021,06,26,01,08,21.80
2021,06,26,01,09,21.80
2021,06,26,01,10,21.80
2021,06,26,01,11,21.80
2021,06,26,01,12,21.70
2021,06,26,01,13,21.70
2021,06,26,01,14,21.70
2021,06,26,01,15,21.70
2021,06,26,01,16,21.70
2021,06,26,01,17,21.60
2021,06,26,01,18,21.60
2021,06,26,01,19,21.60
2021,06,26,01,20,21.60
2021,06,26,01,21,21.60
2021,06,26,01,22,21.60
2021,06,26,01,23,21.50
2021,06,26,01,24,21.50
2021,06,26,01,25,21.50
2021,06,26,01,26,21.40
2021,06,26,01,27,21.40
2021,06,26,01,28,21.40
2021,06,26,01,29,21.40
2021,06,26,01,30,21.40
2021,06,26,01,31,21.40
2021,06,26,01,32,21.40
2021,06,26,01,33,21.40
2021,06,26,01,34,21.40
2021,06,26,01,35,21.40
2021,06,26,01,36,21.40
2021,06,26,01,37,21.40
2021,06,26,01,38,21.30
2021,06,26,01,39,21.30
2021,06,26,01,40,21.30
2021,06,26,01,41,21.30
2021,06,26,01,42,21.30
2021,06,26,01,43,21.30
2021,06,26,01,44,21.30
2021,06,26,01,45,21.20
2021,06,26,01,46,21.20
2021,06,26,01,47,21.20
2021,06,26,01,48,21.20
2021,06,26,01,49,21.20
2021,06,26,01,50,21.20
2021,06,26,01,51,21.20
2021,06,26,01,52,21.10
2021,06,26,01,53,21.10
2021,06,26,01,54,21.10
2021,06,26,01,55,21.10
2021,06,26,01,56,21.10
2021,06,26,01,57,21.10
2021,06,26,01,58,21.10
2021,06,26,01,59,21.00
2021,06,26,02,00,21.00
2021,06,26,02,01,21.00
2021,06,26,02,02,20.90
2021,06,26,02,03,20.90
2021,06,26,02,04,20.90
2021,06,26,02,05,20.90
2021,06,26,02,06,20.80
2021,06,26,02,07,20.80
2021,06,26,02,08,20.80
2021,06,26,02,09,20.80
2021,06,26,02,10,20.80
2021,06,26,02,11,20.80
2021,06,26,02,12,20.70
2021,06,26,02,13,20.70
2021,06,26,02,14,20.70
2021,06,26,02,15,20.70
2021,06,26,02,16,20.70
2021,06,26,02,17,20.70
2021,06,26,02,18,20.70
2021,06,26,02,19,20.70
2021,06,26,02,20,20.70
2021,06,26,02,21,20.70
2021,06,26,02,22,20.70
2021,06,26,02,23,20.60
2021,06,26,02,24,20.60
2021,06,26,02,25,20.60
2021,06,26,02,26,20.60
2021,06,26,02,27,20.60
2021,06,26,02,28,20.60
2021,06,26,02,29,20.60
2021,06,26,02,30,20.60
2021,06,26,02,31,20.60
2021,06,26,02,32,20.60
2021,06,26,02,33,20.60
2021,06,26,02,34,20.60
2021,06,26,02,35,20.50
2021,06,26,02,36,20.50
2021,06,26,02,37,20.50
2021,06,26,02,38,20.50
2021,06,26,02,39,20.40
2021,06,26,02,40,20.40
2021,06,26,02,41,20.40
2021,06,26,02,42,20.40
2021,06,26,02,43,20.40
2021,06,26,02,44,20.40
2021,06,26,02,45,20.30
2021,06,26,02,46,20.30
2021,06,26,02,47,20.30
2021,06,26,02,48,20.30
2021,06,26,02,49,20.30
2021,06,26,02,50,20.30
2021,06,26,02,51,20.30
2021,06,26,02,52,20.30
2021,06,26,02,53,20.30
2021,06,26,02,54,20.20
2021,06,26,02,55,20.20
2021,06,26,02,56,20.20
2021,06,26,02,57,20.20
2021,06,26,02,58,20.20
2021,06,26,02,59,20.20
2021,06,26,03,00,20.20
2021,06,26,03,01,20.20
2021,06,26,03,02,20.20
2021,06,26,03,03,20.20
2021,06,26,03,04,20.20
2021,06,26,03,05,20.20
2021,06,26,03,06,20.20
2021,06,26,03,07,20.20
2021,06,26,03,08,20.10
2021,06,26,03,09,20.10
2021,06,26,03,10,20.10
2021,06,26,03,11,20.10
2021,06,26,03,12,20.10
2021,06,26,03,13,20.10
2021,06,26,03,14,20.10
2021,06,26,03,15,20.10
2021,06,26,03,16,20.10
2021,06,26,03,17,20.10
2021,06,26,03,18,20.10
2021,06,26,03,19,20.10
2021,06,26,03,20,20.10
2021,06,26,03,21,20.10
2021,06,26,03,22,20.10
2021,06,26,03,23,20.00
2021,06,26,03,24,20.00
2021,06,26,03,25,20.00
2021,06,26,03,26,20.00
2021,06,26,03,27,20.00
2021,06,26,03,28,20.00
2021,06,26,03,29,19.90
2021,06,26,03,30,19.90
2021,06,26,03,31,19.90
2021,06,26,03,32,19.90
2021,06,26,03,33,19.90
2021,06,26,03,34,19.90
2021,06,26,03,35,19.90
2021,06,26,03,36,19.90
2021,06,26,03,37,19.80
2021,06,26,03,38,19.80
2021,06,26,03,39,19.80
2021,06,26,03,40,19.80
2021,06,26,03,41,19.80
2021,06,26,03,42,19.80
2021,06,26,03,43,19.80
2021,06,26,03,44,19.80
2021,06,26,03,45,19.80
2021,06,26,03,46,19.80
2021,06,26,03,47,19.80
2021,06,26,03,48,19.80
2021,06,26,03,49,19.70
2021,06,26,03,50,19.70
2021,06,26,03,51,19.70
2021,06,26,03,52,19.70
2021,06,26,03,53,19.70
2021,06,26,03,54,19.70
2021,06,26,03,55,19.70
2021,06,26,03,56,19.70
2021,06,26,03,57,19.70
2021,06,26,03,58,19.70
2021,06,26,03,59,19.70
2021,06,26,04,00,19.70
2021,06,26,04,01,19.70
2021,06,26,04,02,19.70
2021,06,26,04,03,19.70
2021,06,26,04,04,19.60
2021,06,26,04,05,19.60
2021,06,26,04,06,19.70
2021,06,26,04,07,19.70
2021,06,26,04,08,19.70
2021,06,26,04,09,19.70
2021,06,26,04,10,19.70
2021,06,26,04,11,19.70
2021,06,26,04,12,19.70
2021,06,26,04,13,19.70
2021,06,26,04,14,19.70
2021,06,26,04,15,19.70
2021,06,26,04,16,19.60
2021,06,26,04,17,19.60
2021,06,26,04,18,19.60
2021,06,26,04,19,19.60
2021,06,26,04,20,19.60
2021,06,26,04,21,19.60
2021,06,26,04,22,19.60
2021,06,26,04,23,19.50
2021,06,26,04,24,19.50
2021,06,26,04,25,19.50
2021,06,26,04,26,19.50
2021,06,26,04,27,19.50
2021,06,26,04,28,19.50
2021,06,26,04,29,19.40
2021,06,26,04,30,19.40
2021,06,26,04,31,19.40
2021,06,26,04,32,19.40
2021,06,26,04,33,19.40
2021,06,26,04,34,19.40
2021,06,26,04,35,19.40
2021,06,26,04,36,19.40
2021,06,26,04,37,19.40
2021,06,26,04,38,19.40
2021,06,26,04,39,19.40
2021,06,26,04,40,19.40
2021,06,26,04,41,19.30
2021,06,26,04,42,19.30
2021,06,26,04,43,19.30
2021,06,26,04,44,19.30
2021,06,26,04,45,19.30
2021,06,26,04,46,19.30
2021,06,26,04,47,19.30
2021,06,26,04,48,19.30
2021,06,26,04,49,19.30
2021,06,26,04,50,19.20
2021,06,26,04,51,19.20
2021,06,26,04,52,19.20
2021,06,26,04,53,19.20
2021,06,26,04,54,19.20
2021,06,26,04,55,19.20
2021,06,26,04,56,19.20
2021,06,26,04,57,19.20
2021,06,26,04,58,19.20
2021,06,26,04,59,19.20
2021,06,26,05,00,19.20
2021,06,26,05,01,19.20
2021,06,26,05,02,19.10
2021,06,26,05,03,19.10
2021,06,26,05,04,19.10
2021,06,26,05,05,19.10
2021,06,26,05,06,19.10
2021,06,26,05,07,19.10
2021,06,26,05,08,19.10
2021,06,26,05,09,19.10
2021,06,26,05,10,19.10
2021,06,26,05,11,19.10
2021,06,26,05,12,19.10
2021,06,26,05,13,19.00
2021,06,26,05,14,19.00
2021,06,26,05,15,19.00
2021,06,26,05,16,19.00
2021,06,26,05,17,19.00
2021,06,26,05,18,19.00
2021,06,26,05,19,19.00
2021,06,26,05,20,19.00
2021,06,26,05,21,18.90
2021,06,26,05,22,18.90
2021,06,26,05,23,18.90
2021,06,26,05,24,18.90
2021,06,26,05,25,18.90
2021,06,26,05,26,18.90
2021,06,26,05,27,18.90
2021,06,26,05,28,18.90
2021,06,26,05,29,18.90
2021,06,26,05,30,18.90
2021,06,26,05,31,18.80
2021,06,26,05,32,18.80
2021,06,26,05,33,18.80
2021,06,26,05,34,18.80
2021,06,26,05,35,18.80
2021,06,26,05,36,18.80
2021,06,26,05,37,18.80
2021,06,26,05,38,18.80
2021,06,26,05,39,18.80
2021,06,26,05,40,18.80
2021,06,26,05,41,18.80
2021,06,26,05,42,18.80
2021,06,26,05,43,18.80
2021,06,26,05,44,18.80
2021,06,26,05,45,18.80
2021,06,26,05,46,18.80
2021,06,26,05,47,18.80
2021,06,26,05,48,18.80
2021,06,26,05,49,18.80
2021,06,26,05,50,18.80
2021,06,26,05,51,18.80
2021,06,26,05,52,18.70
2021,06,26,05,53,18.70
2021,06,26,05,54,18.70
2021,06,26,05,55,18.70
2021,06,26,05,56,18.70
2021,06,26,05,57,18.70
2021,06,26,05,58,18.70
2021,06,26,05,59,18.70
2021,06,26,06,00,18.70
2021,06,26,06,01,18.70
2021,06,26,06,02,18.70
2021,06,26,06,03,18.70
2021,06,26,06,04,18.70
2021,06,26,06,05,18.70
2021,06,26,06,06,18.70
2021,06,26,06,07,18.70
2021,06,26,06,08,18.70
2021,06,26,06,09,18.70
2021,06,26,06,10,18.70
2021,06,26,06,11,18.70
2021,06,26,06,12,18.70
2021,06,26,06,13,18.70
2021,06,26,06,14,18.70
2021,06,26,06,15,18.70
2021,06,26,06,16,18.70
2021,06,26,06,17,18.70
2021,06,26,06,18,18.70
2021,06,26,06,19,18.60
2021,06,26,06,20,18.60
2021,06,26,06,21,18.60
2021,06,26,06,22,18.60
2021,06,26,06,23,18.60
2021,06,26,06,24,18.60
2021,06,26,06,25,18.60
2021,06,26,06,26,18.60
2021,06,26,06,27,18.60
2021,06,26,06,28,18.60
2021,06,26,06,29,18.60
2021,06,26,06,30,18.60
2021,06,26,06,31,18.60
2021,06,26,06,32,18.60
2021,06,26,06,33,18.60
2021,06,26,06,34,18.60
2021,06,26,06,35,18.60
2021,06,26,06,36,18.60
2021,06,26,06,37,18.60
2021,06,26,06,38,18.60
2021,06,26,06,39,18.60
2021,06,26,06,40,18.60
2021,06,26,06,41,18.60
2021,06,26,06,42,18.60
2021,06,26,06,43,18.60
2021,06,26,06,44,18.60
2021,06,26,06,45,18.60
2021,06,26,06,46,18.60
2021,06,26,06,47,18.60
2021,06,26,06,48,18.60
2021,06,26,06,49,18.60
2021,06,26,06,50,18.60
2021,06,26,06,51,18.60
2021,06,26,06,52,18.60
2021,06,26,06,53,18.60
2021,06,26,06,54,18.60
2021,06,26,06,55,18.60
2021,06,26,06,56,18.60
2021,06,26,06,57,18.60
2021,06,26,06,58,18.60
2021,06,26,06,59,18.60
2021,06,26,07,00,18.60
2021,06,26,07,01,18.60
2021,06,26,07,02,18.60
2021,06,26,07,03,18.60
2021,06,26,07,04,18.60
2021,06,26,07,05,18.60
2021,06,26,07,06,18.60
2021,06,26,07,07,18.60
2021,06,26,07,08,18.60
2021,06,26,07,09,18.60
2021,06,26,07,10,18.60
2021,06,26,07,11,18.60
2021,06,26,07,12,18.60
2021,06,26,07,13,18.60
2021,06,26,07,14,18.70
2021,06,26,07,15,18.70
2021,06,26,07,16,18.70
2021,06,26,07,17,18.70
2021,06,26,07,18,18.70
2021,06,26,07,19,18.70
2021,06,26,07,20,18.70
2021,06,26,07,21,18.70
2021,06,26,07,22,18.80
2021,06,26,07,23,18.80
2021,06,26,07,24,18.80
2021,06,26,07,25,18.80
2021,06,26,07,26,18.80
2021,06,26,07,27,18.80
2021,06,26,07,28,18.80
2021,06,26,07,29,18.80
2021,06,26,07,30,18.80
2021,06,26,07,31,18.90
2021,06,26,07,32,18.90
2021,06,26,07,33,18.90
2021,06,26,07,34,18.90
2021,06,26,07,35,18.90
2021,06,26,07,36,18.90
2021,06,26,07,37,18.90
2021,06,26,07,38,18.90
2021,06,26,07,39,18.90
2021,06,26,07,40,18.90
2021,06,26,07,41,18.90
2021,06,26,07,42,19.00
2021,06,26,07,43,19.00
2021,06,26,07,44,19.00
2021,06,26,07,45,19.10
2021,06,26,07,46,19.10
2021,06,26,07,47,19.10
2021,06,26,07,48,19.10
2021,06,26,07,49,19.10
2021,06,26,07,50,19.10
2021,06,26,07,51,19.20
2021,06,26,07,52,19.20
2021,06,26,07,53,19.20
2021,06,26,07,54,19.20
2021,06,26,07,55,19.20
2021,06,26,07,56,19.30
2021,06,26,07,57,19.30
2021,06,26,07,58,19.30
2021,06,26,07,59,19.30
2021,06,26,08,00,19.40
2021,06,26,08,01,19.40
2021,06,26,08,02,19.40
2021,06,26,08,03,19.50
2021,06,26,08,04,19.50
2021,06,26,08,05,19.60
2021,06,26,08,06,19.60
2021,06,26,08,07,19.60
2021,06,26,08,08,19.70
2021,06,26,08,09,19.70
2021,06,26,08,10,19.70
2021,06,26,08,11,19.80
2021,06,26,08,12,19.80
2021,06,26,08,13,19.80
2021,06,26,08,14,19.90
2021,06,26,08,15,19.90
2021,06,26,08,16,19.90
2021,06,26,08,17,20.00
2021,06,26,08,18,20.00
2021,06,26,08,19,20.10
2021,06,26,08,20,20.10
2021,06,26,08,21,20.20
2021,06,26,08,22,20.20
2021,06,26,08,23,20.30
2021,06,26,08,24,20.30
2021,06,26,08,25,20.40
2021,06,26,08,26,20.40
2021,06,26,08,27,20.50
2021,06,26,08,28,20.50
2021,06,26,08,29,20.60
2021,06,26,08,30,20.60
2021,06,26,08,31,20.60
2021,06,26,08,32,20.70
2021,06,26,08,33,20.70
2021,06,26,08,34,20.70
2021,06,26,08,35,20.80
2021,06,26,08,36,20.80
2021,06,26,08,37,20.80
2021,06,26,08,38,20.90
2021,06,26,08,39,20.90
2021,06,26,08,40,21.00
2021,06,26,08,41,21.00
2021,06,26,08,42,21.10
2021,06,26,08,43,21.10
2021,06,26,08,44,21.20
2021,06,26,08,45,21.20
2021,06,26,08,46,21.20
2021,06,26,08,47,21.30
2021,06,26,08,48,21.30
2021,06,26,08,49,21.30
2021,06,26,08,50,21.40
2021,06,26,08,51,21.40
2021,06,26,08,52,21.50
2021,06,26,08,53,21.50
2021,06,26,08,54,21.60
2021,06,26,08,55,21.60
2021,06,26,08,56,21.70
2021,06,26,08,57,21.80
2021,06,26,08,58,21.80
2021,06,26,08,59,21.80
2021,06,26,09,00,21.90
2021,06,26,09,01,22.00
2021,06,26,09,02,22.10
2021,06,26,09,03,22.20
2021,06,26,09,04,22.20
2021,06,26,09,05,22.30
2021,06,26,09,06,22.30
2021,06,26,09,07,22.40
2021,06,26,09,08,22.50
2021,06,26,09,09,22.60
2021,06,26,09,10,22.70
2021,06,26,09,11,22.80
2021,06,26,09,12,22.90
2021,06,26,09,13,23.00
2021,06,26,09,14,23.10
2021,06,26,09,15,23.30
2021,06,26,09,16,23.40
2021,06,26,09,17,23.40
2021,06,26,09,18,23.50
2021,06,26,09,19,23.60
2021,06,26,09,20,23.70
2021,06,26,09,21,23.80
2021,06,26,09,22,23.90
2021,06,26,09,23,23.90
2021,06,26,09,24,24.00
2021,06,26,09,25,24.10
2021,06,26,09,26,24.30
2021,06,26,09,27,24.40
2021,06,26,09,28,24.50
2021,06,26,09,29,24.50
2021,06,26,09,30,24.60
2021,06,26,09,31,24.70
2021,06,26,09,32,24.80
2021,06,26,09,33,24.90
2021,06,26,09,34,24.90
2021,06,26,09,35,25.00
2021,06,26,09,36,25.10
2021,06,26,09,37,25.20
2021,06,26,09,38,25.30
2021,06,26,09,39,25.40
2021,06,26,09,40,25.50
2021,06,26,09,41,25.60
2021,06,26,09,42,25.90
2021,06,26,09,43,26.00
2021,06,26,09,44,26.10
2021,06,26,09,45,26.30
2021,06,26,09,46,26.40
2021,06,26,09,47,26.60
2021,06,26,09,48,26.60
2021,06,26,09,49,26.70
2021,06,26,09,50,26.80
2021,06,26,09,51,26.90
2021,06,26,09,52,26.90
2021,06,26,09,53,26.90
2021,06,26,09,54,27.00
2021,06,26,09,55,27.00
2021,06,26,09,56,27.10
2021,06,26,09,57,27.10
2021,06,26,09,58,27.20
2021,06,26,09,59,27.30
2021,06,26,10,00,27.30
2021,06,26,10,01,27.40
2021,06,26,10,02,27.40
2021,06,26,10,03,27.50
2021,06,26,10,04,27.50
2021,06,26,10,05,27.50
2021,06,26,10,06,27.60
2021,06,26,10,07,27.60
2021,06,26,10,08,27.70
2021,06,26,10,09,27.70
2021,06,26,10,10,27.70
2021,06,26,10,11,27.80
2021,06,26,10,12,27.80
2021,06,26,10,13,27.80
2021,06,26,10,14,27.80
2021,06,26,10,15,27.80
2021,06,26,10,16,27.80
2021,06,26,10,17,27.90
2021,06,26,10,18,27.90
2021,06,26,10,19,27.90
2021,06,26,10,20,27.90
2021,06,26,10,21,28.00
2021,06,26,10,22,28.00
2021,06,26,10,23,28.00
2021,06,26,10,24,28.00
2021,06,26,10,25,28.10
2021,06,26,10,26,28.10
2021,06,26,10,27,28.10
2021,06,26,10,28,28.10
2021,06,26,10,29,28.10
2021,06,26,10,30,28.10
2021,06,26,10,31,28.10
2021,06,26,10,32,28.10
2021,06,26,10,33,28.20
2021,06,26,10,34,28.20
2021,06,26,10,35,28.30
2021,06,26,10,36,28.30
2021,06,26,10,37,28.40
2021,06,26,10,38,28.40
2021,06,26,10,39,28.50
2021,06,26,10,40,28.50
2021,06,26,10,41,28.60
2021,06,26,10,42,28.70
2021,06,26,10,43,28.80
2021,06,26,10,44,28.80
2021,06,26,10,45,28.90
2021,06,26,10,46,29.00
2021,06,26,10,47,29.00
2021,06,26,10,48,29.10
2021,06,26,10,49,29.20
2021,06,26,10,50,29.30
2021,06,26,10,51,29.30
2021,06,26,10,52,29.40
2021,06,26,10,53,29.50
2021,06,26,10,54,29.50
2021,06,26,10,55,29.70
2021,06,26,10,56,29.80
2021,06,26,10,57,29.90
2021,06,26,10,58,30.00
2021,06,26,10,59,30.10
2021,06,26,11,00,30.10
2021,06,26,11,01,30.20
2021,06,26,11,02,30.20
2021,06,26,11,03,30.30
2021,06,26,11,04,30.40
2021,06,26,11,05,30.40
2021,06,26,11,06,30.50
2021,06,26,11,07,30.50
2021,06,26,11,08,30.60
2021,06,26,11,09,30.60
2021,06,26,11,10,30.60
2021,06,26,11,11,30.60
2021,06,26,11,12,30.70
2021,06,26,11,13,30.70
2021,06,26,11,14,30.80
2021,06,26,11,15,30.80
2021,06,26,11,16,30.90
2021,06,26,11,17,30.90
2021,06,26,11,18,31.00
2021,06,26,11,19,31.00
2021,06,26,11,20,31.10
2021,06,26,11,21,31.10
2021,06,26,11,22,31.20
2021,06,26,11,23,31.20
2021,06,26,11,24,31.20
2021,06,26,11,25,31.30
2021,06,26,11,26,31.30
2021,06,26,11,27,31.30
2021,06,26,11,28,31.40
2021,06,26,11,29,31.40
2021,06,26,11,30,31.40
2021,06,26,11,31,31.40
2021,06,26,11,32,31.30
2021,06,26,11,33,31.30
2021,06,26,11,34,31.30
2021,06,26,11,35,31.30
2021,06,26,11,36,31.30
2021,06,26,11,37,31.30
2021,06,26,11,38,31.30
2021,06,26,11,39,31.30
2021,06,26,11,40,31.40
2021,06,26,11,41,31.40
2021,06,26,11,42,31.50
2021,06,26,11,43,31.50
2021,06,26,11,44,31.50
2021,06,26,11,45,31.50
2021,06,26,11,46,31.50
2021,06,26,11,47,31.50
2021,06,26,11,48,31.60
2021,06,26,11,49,31.60
2021,06,26,11,50,31.60
2021,06,26,11,51,31.60
2021,06,26,11,52,31.70
2021,06,26,11,53,31.70
2021,06,26,11,54,31.70
2021,06,26,11,55,31.70
2021,06,26,11,56,31.70
2021,06,26,11,57,31.70
2021,06,26,11,58,31.70
2021,06,26,11,59,31.70
2021,06,26,12,00,31.70
2021,06,26,12,01,31.80
2021,06,26,12,02,31.80
2021,06,26,12,03,31.80
2021,06,26,12,04,31.80
2021,06,26,12,05,31.80
2021,06,26,12,06,31.80
2021,06,26,12,07,31.90
2021,06,26,12,08,31.90
2021,06,26,12,09,32.00
2021,06,26,12,10,32.10
2021,06,26,12,11,32.20
2021,06,26,12,12,32.30
2021,06,26,12,13,32.40
2021,06,26,12,14,32.50
2021,06,26,12,15,32.60
2021,06,26,12,16,32.70
2021,06,26,12,17,32.70
2021,06,26,12,18,32.80
2021,06,26,12,19,32.90
2021,06,26,12,20,32.90
2021,06,26,12,21,33.00
2021,06,26,12,22,33.00
2021,06,26,12,23,33.10
2021,06,26,12,24,33.10
2021,06,26,12,25,33.10
2021,06,26,12,26,33.10
2021,06,26,12,27,33.20
2021,06,26,12,28,33.20
2021,06,26,12,29,33.20
2021,06,26,12,30,33.20
2021,06,26,12,31,33.20
2021,06,26,12,32,33.10
2021,06,26,12,33,33.10
2021,06,26,12,34,33.00
2021,06,26,12,35,33.00
2021,06,26,12,36,33.00
2021,06,26,12,37,33.00
2021,06,26,12,38,33.00
2021,06,26,12,39,33.00
2021,06,26,12,40,32.90
2021,06,26,12,41,32.90
2021,06,26,12,42,32.90
2021,06,26,12,43,32.80
2021,06,26,12,44,32.80
2021,06,26,12,45,32.80
2021,06,26,12,46,32.80
2021,06,26,12,47,32.80
2021,06,26,12,48,32.80
2021,06,26,12,49,32.80
2021,06,26,12,50,32.80
2021,06,26,12,51,32.90
2021,06,26,12,52,32.90
2021,06,26,12,53,33.00
2021,06,26,12,54,33.00
2021,06,26,12,55,33.00
2021,06,26,12,56,33.10
2021,06,26,12,57,33.10
2021,06,26,12,58,33.20
2021,06,26,12,59,33.20
2021,06,26,13,00,33.20
2021,06,26,13,01,33.20
2021,06,26,13,02,33.20
2021,06,26,13,03,33.20
2021,06,26,13,04,33.10
2021,06,26,13,05,33.10
2021,06,26,13,06,33.10
2021,06,26,13,07,33.10
2021,06,26,13,08,33.10
2021,06,26,13,09,33.10
2021,06,26,13,10,33.10
2021,06,26,13,11,33.20
2021,06,26,13,12,33.20
2021,06,26,13,13,33.20
2021,06,26,13,14,33.20
2021,06,26,13,15,33.20
2021,06,26,13,16,33.20
2021,06,26,13,17,33.20
2021,06,26,13,18,33.20
2021,06,26,13,19,33.20
2021,06,26,13,20,33.20
2021,06,26,13,21,33.30
2021,06,26,13,22,33.30
2021,06,26,13,23,33.30
2021,06,26,13,24,33.40
2021,06,26,13,25,33.50
2021,06,26,13,26,33.50
2021,06,26,13,27,33.60
2021,06,26,13,28,33.60
2021,06,26,13,29,33.60
2021,06,26,13,30,33.60
2021,06,26,13,31,33.60
2021,06,26,13,32,33.70
2021,06,26,13,33,33.70
2021,06,26,13,34,33.70
2021,06,26,13,35,33.80
2021,06,26,13,36,33.90
2021,06,26,13,37,33.90
2021,06,26,13,38,34.00
2021,06,26,13,39,34.00
2021,06,26,13,40,34.10
2021,06,26,13,41,34.10
2021,06,26,13,42,34.10
2021,06,26,13,43,34.10
2021,06,26,13,44,34.20
2021,06,26,13,45,34.20
2021,06,26,13,46,34.20
2021,06,26,13,47,34.30
2021,06,26,13,48,34.30
2021,06,26,13,49,34.30
2021,06,26,13,50,34.30
2021,06,26,13,51,34.40
2021,06,26,13,52,34.40
2021,06,26,13,53,34.50
2021,06,26,13,54,34.50
2021,06,26,13,55,34.60
2021,06,26,13,56,34.60
2021,06,26,13,57,34.70
2021,06,26,13,58,34.70
2021,06,26,13,59,34.80
2021,06,26,14,00,34.90
2021,06,26,14,01,34.90
2021,06,26,14,02,35.00
2021,06,26,14,03,35.00
2021,06,26,14,04,35.00
2021,06,26,14,05,35.10
2021,06,26,14,06,35.10
2021,06,26,14,07,35.10
2021,06,26,14,08,35.20
2021,06,26,14,09,35.20
2021,06,26,14,10,35.30
2021,06,26,14,11,35.40
2021,06,26,14,12,35.50
2021,06,26,14,13,35.60
2021,06,26,14,14,35.70
2021,06,26,14,15,35.90
2021,06,26,14,16,36.00
2021,06,26,14,17,36.10
2021,06,26,14,18,36.20
2021,06,26,14,19,36.30
2021,06,26,14,20,36.30
2021,06,26,14,21,36.40
2021,06,26,14,22,36.40
2021,06,26,14,23,36.40
2021,06,26,14,24,36.50
2021,06,26,14,25,36.50
2021,06,26,14,26,36.60
2021,06,26,14,27,36.60
2021,06,26,14,28,36.70
2021,06,26,14,29,36.70
2021,06,26,14,30,36.70
2021,06,26,14,31,36.80
2021,06,26,14,32,36.80
2021,06,26,14,33,36.90
2021,06,26,14,34,36.90
2021,06,26,14,35,37.00
2021,06,26,14,36,37.10
2021,06,26,14,37,37.10
2021,06,26,14,38,37.10
2021,06,26,14,39,37.10
2021,06,26,14,40,37.10
2021,06,26,14,41,37.10
2021,06,26,14,42,37.10
2021,06,26,14,43,37.00
2021,06,26,14,44,37.00
2021,06,26,14,45,37.00
2021,06,26,14,46,37.00
2021,06,26,14,47,37.00
2021,06,26,14,48,37.00
2021,06,26,14,49,37.00
2021,06,26,14,50,37.10
2021,06,26,14,51,37.10
2021,06,26,14,52,37.10
2021,06,26,14,53,37.10
2021,06,26,14,54,37.20
2021,06,26,14,55,37.20
2021,06,26,14,56,37.20
2021,06,26,14,57,37.30
2021,06,26,14,58,37.30
2021,06,26,14,59,37.40
2021,06,26,15,00,37.40
2021,06,26,15,01,37.30
2021,06,26,15,02,37.30
2021,06,26,15,03,37.30
2021,06,26,15,04,37.30
2021,06,26,15,05,37.30
2021,06,26,15,06,37.30
2021,06,26,15,07,37.20
2021,06,26,15,08,37.20
2021,06,26,15,09,37.20
2021,06,26,15,10,37.10
2021,06,26,15,11,37.10
2021,06,26,15,12,37.10
2021,06,26,15,13,37.10
2021,06,26,15,14,37.10
2021,06,26,15,15,37.10
2021,06,26,15,16,37.00
2021,06,26,15,17,37.00
2021,06,26,15,18,37.10
2021,06,26,15,19,37.10
2021,06,26,15,20,37.10
2021,06,26,15,21,37.20
2021,06,26,15,22,37.20
2021,06,26,15,23,37.30
2021,06,26,15,24,37.30
2021,06,26,15,25,37.30
2021,06,26,15,26,37.40
2021,06,26,15,27,37.40
2021,06,26,15,28,37.40
2021,06,26,15,29,37.50
2021,06,26,15,30,37.60
2021,06,26,15,31,37.60
2021,06,26,15,32,37.70
2021,06,26,15,33,37.80
2021,06,26,15,34,37.80
2021,06,26,15,35,37.90
2021,06,26,15,36,37.90
2021,06,26,15,37,37.90
2021,06,26,15,38,37.90
2021,06,26,15,39,37.90
2021,06,26,15,40,37.80
2021,06,26,15,41,37.80
2021,06,26,15,42,37.70
2021,06,26,15,43,37.70
2021,06,26,15,44,37.70
2021,06,26,15,45,37.80
2021,06,26,15,46,37.80
2021,06,26,15,47,37.80
2021,06,26,15,48,37.90
2021,06,26,15,49,37.90
2021,06,26,15,50,37.90
2021,06,26,15,51,37.90
2021,06,26,15,52,37.80
2021,06,26,15,53,37.80
2021,06,26,15,54,37.80
2021,06,26,15,55,37.80
2021,06,26,15,56,37.80
2021,06,26,15,57,37.80
2021,06,26,15,58,37.80
2021,06,26,15,59,37.80
2021,06,26,16,00,37.80
2021,06,26,16,01,37.80
2021,06,26,16,02,37.80
2021,06,26,16,03,37.80
2021,06,26,16,04,37.80
2021,06,26,16,05,37.70
2021,06,26,16,06,37.70
2021,06,26,16,07,37.70
2021,06,26,16,08,37.70
2021,06,26,16,09,37.70
2021,06,26,16,10,37.70
2021,06,26,16,11,37.70
2021,06,26,16,12,37.80
2021,06,26,16,13,37.80
2021,06,26,16,14,37.90
2021,06,26,16,15,37.90
2021,06,26,16,16,37.90
2021,06,26,16,17,37.90
2021,06,26,16,18,38.00
2021,06,26,16,19,38.10
2021,06,26,16,20,38.10
2021,06,26,16,21,38.20
2021,06,26,16,22,38.20
2021,06,26,16,23,38.20
2021,06,26,16,24,38.20
2021,06,26,16,25,38.20
2021,06,26,16,26,38.20
2021,06,26,16,27,38.20
2021,06,26,16,28,38.20
2021,06,26,16,29,38.20
2021,06,26,16,30,38.20
2021,06,26,16,31,38.20
2021,06,26,16,32,38.20
2021,06,26,16,33,38.20
2021,06,26,16,34,38.20
2021,06,26,16,35,38.10
2021,06,26,16,36,38.10
2021,06,26,16,37,38.00
2021,06,26,16,38,37.90
2021,06,26,16,39,37.90
2021,06,26,16,40,37.80
2021,06,26,16,41,37.70
2021,06,26,16,42,37.60
2021,06,26,16,43,37.50
2021,06,26,16,44,37.40
2021,06,26,16,45,37.40
2021,06,26,16,46,37.30
2021,06,26,16,47,37.30
2021,06,26,16,48,37.20
2021,06,26,16,49,37.20
2021,06,26,16,50,37.10
2021,06,26,16,51,37.10
2021,06,26,16,52,37.10
2021,06,26,16,53,37.00
2021,06,26,16,54,37.00
2021,06,26,16,55,37.00
2021,06,26,16,56,37.00
2021,06,26,16,57,37.10
2021,06,26,16,58,37.10
2021,06,26,16,59,37.20
2021,06,26,17,00,37.20
2021,06,26,17,01,37.30
2021,06,26,17,02,37.40
2021,06,26,17,03,37.50
2021,06,26,17,04,37.60
2021,06,26,17,05,37.70
2021,06,26,17,06,37.80
2021,06,26,17,07,37.90
2021,06,26,17,08,38.00
2021,06,26,17,09,38.10
2021,06,26,17,10,38.20
2021,06,26,17,11,38.30
2021,06,26,17,12,38.40
2021,06,26,17,13,38.50
2021,06,26,17,14,38.50
2021,06,26,17,15,38.60
2021,06,26,17,16,38.70
2021,06,26,17,17,38.80
2021,06,26,17,18,38.80
2021,06,26,17,19,38.80